Weather in Shimkusy

Russia / Chuvash Republic     55°32′46″N   47°56′06″E
temp.,
°C
wind,
m/s
gust,
m/s
humid.,
%
clouds,
%
prec.,
mm/h
press.,
hPa
HPBL,
m
9 march, tue
tue900:00−12wnw3694100 0.0 1003104
03:00−15w339652 0.0 100631
06:00−17w33977 0.0 100732
09:00−14w359623 0.0 1009200
12:00−11w348999 0.0 1009405
15:00−10wnw359099 0.1 1009500
18:00−12wnw349598 0.1 101180
21:00−12nnw499597 0.2 1011232
10 march, wed
wed1000:00−15nnw599592 0.1 1011246
03:00−15nnw6109495 0.1 1013339
06:00−18nnw61194100 0.1 1013380
09:00−19nnw61094100 0.1 1016398
12:00−19nnw61093100 0.1 1017436
15:00−18nnw61091100 0.1 1019518
18:00−21nnw499388 0.0 1020166
21:00−23nnw479544 0.0 1022114
11 march, thu
thu1100:00−23nw479923 0.0 1023108
03:00−21wnw499855 0.1 1023191
06:00−23wnw499999 0.0 1023165
09:00−18wnw61094100 0.1 1023419
12:00−15nw5893100 0.1 1023495
15:00−11nw51088100 0.3 1023796
18:00−11nw3596100 0.1 1024102
21:00−12wnw4119695 0.1 1026235
12 march, fri
fri1200:00−14wnw499679 0.0 1027154
03:00−17wnw479757 0.0 1028107
06:00−19wnw47970 0.0 1030107
09:00−16wnw489311 0.0 1031256
12:00−12w598763 0.0 1031365
15:00−10w598457 0.0 1031504
18:00−14w448931 0.0 103274
21:00−16wsw469115 0.0 103393
13 march, sat
sat1300:00−16wsw46871 0.0 103391
03:00−17sw44830 0.0 103379
06:00−18sw34882 0.0 103362
09:00−13ssw58861 0.0 1033249
12:00−9ssw59841 0.0 1032399
15:00−7ssw610821 0.0 1031646
18:00−10s512870 0.0 1029217
21:00−11ssw6138432 0.0 1028324